[[{"header":{"parameterUnit":"m.s-1","parameterCategory":1,"la1":30.2991,"la2":30.254,"lo1":-89.0895,"lo2":-89.0444,"dy":0.0017,"dx":0.0017,"nx":28,"ny":28,"refTime":"2024-07-23T21:00:00:Z","depth":0,"parameterNumber":2,"parameterNumberName":"U-component_of_WINDS"},"data":[0,0,0,0,0,0,0,0,0,0,0,0,0,0,0,0,0,0,0,0,0,0,0,0,0,0,0,0,0,0,0,0,0,0,0,0,0,0,0,0,0,0,0,0,0,0,0,0,0,0,0,0,0,0,0,0,0,0,-4.8692,-4.8694,0,-4.8891,-4.8894,-4.8896,-4.8845,-4.8841,-4.8837,-4.8833,-4.9034,-4.9043,-4.9052,0,0,0,0,0,0,0,0,0,0,0,0,0,-4.8263,-4.8271,-4.8691,-4.8694,-4.8697,-4.8891,-4.8894,-4.8896,-4.8845,-4.8841,-4.8836,-4.8831,-4.9031,-4.9042,-4.9053,0,0,0,0,0,0,0,0,0,0,0,0,0,-4.8455,-4.8274,-4.8691,-4.8695,-4.8697,-4.889,-4.8894,-4.8897,-4.8846,-4.8841,-4.8835,-4.8829,-4.9028,-4.9041,-4.9054,-4.9255,0,0,-4.9095,-4.9101,0,0,0,0,0,0,0,0,-4.8444,-4.847,-4.8692,-4.8695,-4.8698,-4.8837,-4.8816,-4.9017,-4.8848,-4.879,-4.8833,-4.8826,-4.8973,-4.8991,-4.9041,-4.9264,-4.9273,-4.9096,-4.9105,-4.911,-4.9114,0,0,0,0,0,0,0,-4.8431,-4.8461,-4.877,-4.8695,-4.8699,-4.8685,-4.8706,-4.8854,-4.8912,-4.8794,-4.8791,-4.8816,-4.8974,-4.9028,-4.9045,-4.9276,-4.9096,-4.9108,-4.9116,-4.9122,-4.9673,-4.968,0,0,0,0,0,0,-4.8415,-4.8451,-4.8764,-4.8776,-4.8554,-4.8698,-4.8721,-4.8798,-4.891,-4.8921,-4.882,-4.8812,-4.9008,-4.903,-4.9052,-4.9294,-4.911,-4.9123,-4.9131,-4.9667,-4.9675,-4.9682,0,0,0,0,0,0,-4.8406,-4.8444,-4.8756,-4.8613,-4.8652,-4.8711,-4.8799,-4.8805,-4.886,-4.893,-4.8939,-4.8866,-4.9004,-4.9033,-4.9205,-4.93,-4.9129,-4.9141,-4.9659,-4.9669,-4.9679,-4.978,0,0,0,0,0,0,-4.8394,-4.8441,-4.8518,-4.8615,-4.8659,-4.8907,-4.8805,-4.8813,-4.8884,-4.8875,-4.8975,-4.8986,-4.9002,-4.9185,-4.9218,-4.9316,-4.9152,-4.9651,-4.9664,-4.9675,-4.9768,-4.9792,-4.9812,0,0,0,0,0,-4.8379,-4.8538,-4.8523,-4.8561,-4.8758,-4.8912,-4.8938,-4.8954,-4.8892,-4.8969,-4.9015,-4.8982,-4.9285,-4.9203,-4.924,-4.9343,-4.9645,-4.966,-4.9674,-4.9758,-4.9787,-4.9811,0,0,0,0,0,0,-4.845,-4.8551,-4.8535,-4.873,-4.8813,-4.8903,-4.9002,-4.8984,-4.9086,-4.9073,-4.9088,-4.9111,-4.9287,-4.9332,-4.9239,-4.9543,-4.9456,-4.9479,-4.9506,-4.9535,-4.9556,-4.954,-4.9163,0,0,0,0,0,-4.8489,-4.8607,-4.8688,-4.8853,-4.8895,-4.8942,-4.901,-4.9016,-4.9102,-4.9136,-4.9194,-4.9277,-4.9391,-4.9466,-4.9574,-4.9775,-4.9795,-4.9864,-4.9886,-4.9903,-4.9922,-5.0031,-5.0062,-4.9731,-4.973,-4.973,0,0,-4.8569,-4.8639,-4.8712,-4.8869,-4.8934,-4.9054,-4.8972,-4.9103,-4.9192,-4.9155,-4.9321,-4.9367,-4.9461,-4.9648,-4.9734,-4.9692,-5.0019,-4.9922,-4.9936,-4.9945,-5.0049,-5.008,-5.0108,-4.9741,-4.9739,-4.9737,0,0,-4.8777,-4.8842,-4.8986,-4.9053,-4.9153,-4.9184,-4.9218,-4.9312,-4.9341,-4.9508,-4.9483,-4.9589,-4.9785,-4.9853,-4.9914,-5.0149,-5.0122,-5.0184,-5.0298,-5.0403,-5.0429,-5.0452,-5.0535,-5.0564,-5.0203,-5.0203,-5.0203,0,-4.8863,-4.9045,-4.9062,-4.9196,-4.9265,-4.9239,-4.9384,-4.9448,-4.9578,-4.9626,-4.9578,-4.9824,-4.9885,-5.0087,-5.0145,-5.0195,-5.0234,-5.0171,-5.0425,-5.0448,-5.047,-5.0548,-5.058,-5.021,-5.0209,-5.0208,-5.0208,0,-4.9146,-4.9273,-4.9377,-4.9505,-4.9586,-4.9725,-4.9761,-4.9841,-4.984,-4.9875,-5.0045,-5.0119,-5.0242,-5.0291,-5.0291,-5.0493,-5.0464,-5.0421,-5.0333,-5.0508,-5.0582,-5.0612,-5.0219,-5.0217,-5.0215,-5.0213,0,0,-4.9402,-4.9539,-4.9576,-4.9634,-4.9743,-4.984,-4.9978,-5.01,-5.0167,-5.0258,-5.0373,-5.054,-5.0501,-5.0569,-5.0577,-5.067,-5.085,-5.0615,-5.0617,-5.0654,-5.1076,-5.1106,-5.1141,-5.0834,-5.084,-5.0844,-5.1067,0,-4.9618,-4.9862,-4.9881,-5.01,-5.0216,-5.0194,-5.0314,-5.0393,-5.043,-5.0533,-5.0573,-5.0691,-5.0631,-5.0672,-5.0763,-5.0808,-5.0934,-5.0793,-5.0939,-5.0944,-5.0914,-5.118,-5.1213,-5.142,-5.1096,-5.1101,-5.1105,0,-4.9902,-5.0003,-5.0234,-5.0327,-5.0376,-5.0484,-5.0596,-5.0696,-5.0786,-5.0806,-5.0883,-5.0878,-5.1018,-5.0928,-5.112,-5.1024,-5.1085,-5.1116,-5.1124,-5.1137,-5.1033,-5.1198,-5.1486,-5.1516,-5.1151,-5.1147,-5.1144,0,-5.0064,-5.0257,-5.042,-5.047,-5.0583,-5.0659,-5.0709,-5.0793,-5.0865,-5.0963,-5.101,-5.1123,-5.1185,-5.1272,-5.1297,-5.1229,-5.1489,-5.14,-5.1508,-5.1507,-5.1562,-5.1558,-5.1862,-5.1605,-5.1604,-5.1604,-5.1603,0,-5.0302,-5.0443,-5.0494,-5.0594,-5.0752,-5.0773,-5.0928,-5.0974,-5.1049,-5.1156,-5.1144,-5.1245,-5.1273,-5.1379,-5.14,-5.1555,-5.1584,-5.1603,-5.1606,-5.1603,-5.16,-5.1641,-5.1627,-5.1612,-5.161,-5.1609,-5.1607,0,-5.0508,-5.0548,-5.0723,-5.0817,-5.0843,-5.0955,-5.1034,-5.113,-5.1166,-5.1302,-5.1335,-5.139,-5.1514,-5.1549,-5.1697,-5.1711,-5.1894,-5.1885,-5.1864,-5.1863,-5.1968,-5.1957,-5.2308,-5.2354,-5.2069,-5.2072,-5.2074,0,-5.0656,-5.0764,-5.087,-5.0941,-5.0995,-5.1111,-5.1185,-5.121,-5.1287,-5.1398,-5.148,-5.1603,-5.1702,-5.1901,-5.1953,-5.2067,-5.2059,-5.2175,-5.2076,-5.2069,-5.2059,-5.2051,-5.2061,-5.2192,-5.2195,-5.2198,-5.22,0,-5.0914,-5.0929,-5.1036,-5.1151,-5.1239,-5.1331,-5.1418,-5.1477,-5.1515,-5.1602,-5.1729,-5.1807,-5.1959,-5.208,-5.2195,-5.2246,-5.2229,-5.2231,-5.2261,-5.2258,-5.2241,-5.225,-5.1913,-5.2222,-5.222,-5.2218,-5.2217,-5.2216,-5.1094,-5.1189,-5.1278,-5.1398,-5.1467,-5.155,-5.1644,-5.1692,-5.1799,-5.1926,-5.1934,-5.2072,-5.2159,-5.2312,-5.2369,-5.2476,-5.2441,-5.2486,-5.2497,-5.2507,-5.2515,-5.2226,-5.2497,-5.2497,-5.2496,-5.2496,-5.2495,0,-5.135,-5.1407,-5.1517,-5.164,-5.1735,-5.1713,-5.1809,-5.1889,-5.2011,-5.2094,-5.2192,-5.2338,-5.2457,-5.2519,-5.2636,-5.271,-5.2705,-5.274,-5.2734,-5.2745,-5.254,-5.2501,-5.2742,-5.2742,-5.2742,-5.2742,-5.2742,-5.2742,-5.1494,-5.1654,-5.1679,-5.1873,-5.1928,-5.2064,-5.2121,-5.2196,-5.2262,-5.2427,-5.2525,-5.2566,-5.2641,-5.2764,-5.2871,-5.2886,-5.2929,-5.2967,-5.2978,-5.2785,-5.276,-5.2736,-5.2699,-5.2977,-5.2977,-5.3174,-5.3176,-5.3177]},{"header":{"parameterUnit":"m.s-1","parameterCategory":1,"la1":30.2991,"la2":30.254,"lo1":-89.0895,"lo2":-89.0444,"dy":0.0017,"dx":0.0017,"nx":28,"ny":28,"refTime":"2024-07-23T21:00:00:Z","depth":0,"parameterNumber":3,"parameterNumberName":"V-component_of_WINDS"},"data":[0,0,0,0,0,0,0,0,0,0,0,0,0,0,0,0,0,0,0,0,0,0,0,0,0,0,0,0,0,0,0,0,0,0,0,0,0,0,0,0,0,0,0,0,0,0,0,0,0,0,0,0,0,0,0,0,0,0,-0.0141,-0.014,0,0.0007,0.0008,0.001,0.0122,0.0123,0.0124,0.0125,0.0275,0.0278,0.0281,0,0,0,0,0,0,0,0,0,0,0,0,0,-0.0328,-0.0326,-0.0142,-0.014,-0.0138,0.0006,0.0008,0.001,0.0122,0.0123,0.0124,0.0126,0.0274,0.0277,0.0281,0,0,0,0,0,0,0,0,0,0,0,0,0,-0.0221,-0.0325,-0.0142,-0.0065,-0.0056,0.0006,0.0008,0.0011,0.0122,0.0123,0.0125,0.0126,0.0273,0.0277,0.0282,0.0279,0,0,0.0295,0.0297,0,0,0,0,0,0,0,0,-0.0227,-0.0214,-0.0078,-0.007,-0.0061,0.0048,-0.0002,0.0101,0.0121,0.0054,0.0125,0.0127,0.0198,0.0209,0.0233,0.0286,0.0292,0.0296,0.0299,0.0301,0.0302,0,0,0,0,0,0,0,-0.0235,-0.022,-0.0083,-0.0076,-0.0066,-0.0038,-0.0021,0.0018,0.0115,0.006,0.0068,0.0085,0.0203,0.0228,0.0237,0.0294,0.0296,0.03,0.0303,0.0304,0.0352,0.0351,0,0,0,0,0,0,-0.0254,-0.0227,-0.0088,-0.0079,-0.0142,-0.0036,-0.0017,0.0011,0.0115,0.0133,0.0083,0.0089,0.022,0.0232,0.0243,0.0246,0.03,0.0305,0.0307,0.0354,0.0352,0.035,0,0,0,0,0,0,-0.0258,-0.0243,-0.0094,-0.015,-0.0129,-0.0034,-0.0004,0.0013,0.0039,0.0133,0.0151,0.0091,0.0221,0.0237,0.0269,0.0253,0.0307,0.0311,0.0355,0.0353,0.0351,0.0252,0,0,0,0,0,0,-0.0264,-0.0245,-0.0245,-0.0151,-0.0127,-0.007,-0.0005,0.0015,0.0047,0.0056,0.0145,0.0161,0.0224,0.0262,0.0274,0.026,0.0314,0.0357,0.0354,0.0352,0.0257,0.0247,0.0238,0,0,0,0,0,-0.0271,-0.0279,-0.0246,-0.0229,-0.0125,-0.0071,-0.0057,0.0015,0.0045,0.0045,0.0106,0.0158,0.0253,0.0264,0.0278,0.0266,0.0358,0.0355,0.0352,0.0261,0.0249,0.0238,0,0,0,0,0,0,-0.0378,-0.0265,-0.0227,-0.0205,-0.0148,-0.0052,-0.005,-0.0,0.0048,0.0055,0.0143,0.0162,0.0185,0.0229,0.024,0.0269,0.0312,0.0312,0.0239,0.0227,0.0218,0.0206,0.0318,0,0,0,0,0,-0.0399,-0.0365,-0.0268,-0.0258,-0.0231,-0.0146,-0.012,-0.0068,-0.0007,0.0017,0.008,0.0138,0.0181,0.0207,0.0251,0.0265,0.0285,0.0263,0.0254,0.0245,0.0243,0.0253,0.0244,0.034,0.034,0.034,0,0,-0.0442,-0.0376,-0.036,-0.0278,-0.0228,-0.0195,-0.0126,-0.0094,-0.0069,0.0022,0.0057,0.0105,0.0175,0.0197,0.0211,0.0235,0.0222,0.0241,0.0234,0.0236,0.0249,0.024,0.0231,0.0337,0.0338,0.0338,0,0,-0.0504,-0.045,-0.0436,-0.0387,-0.0312,-0.0255,-0.0252,-0.0163,-0.0127,-0.0091,-0.0022,0.001,0.0081,0.0128,0.0161,0.0119,0.0168,0.0131,0.0079,0.0088,0.0081,0.0074,0.0058,0.0051,0.0129,0.0128,0.0128,0,-0.0567,-0.0514,-0.0435,-0.0407,-0.0373,-0.0287,-0.0272,-0.0229,-0.0144,-0.0123,-0.0096,-0.0004,0.0049,0.0084,0.0073,0.0098,0.0104,0.012,0.0075,0.007,0.0065,0.0051,0.0044,0.0123,0.0124,0.0124,0.0125,0,-0.0596,-0.056,-0.0557,-0.0477,-0.0442,-0.0421,-0.0339,-0.0313,-0.0264,-0.021,-0.0174,-0.0107,-0.0048,-0.0035,0.0012,0.0006,0.0019,0.0059,0.0104,0.005,0.0037,0.0032,0.0116,0.0118,0.0119,0.0121,0,0,-0.0722,-0.0597,-0.0598,-0.056,-0.0471,-0.0442,-0.0417,-0.0358,-0.0338,-0.0282,-0.0259,-0.0199,-0.0161,-0.0124,-0.007,-0.0062,-0.0102,-0.0022,-0.002,-0.0041,-0.0105,-0.0138,-0.0145,-0.0067,-0.0068,-0.0069,-0.0112,0,-0.0771,-0.0721,-0.0648,-0.0622,-0.0588,-0.0506,-0.0484,-0.0428,-0.0376,-0.034,-0.0282,-0.0242,-0.0194,-0.0171,-0.016,-0.01,-0.0114,-0.0095,-0.0047,-0.0046,-0.0068,-0.0152,-0.0185,-0.0229,-0.0116,-0.0117,-0.0117,0,-0.0822,-0.077,-0.0741,-0.0654,-0.0637,-0.0618,-0.0558,-0.0524,-0.0458,-0.0421,-0.0379,-0.032,-0.029,-0.0248,-0.0205,-0.0194,-0.0169,-0.0137,-0.0137,-0.0131,-0.0086,-0.0149,-0.0242,-0.0249,-0.0124,-0.0123,-0.0123,0,-0.0919,-0.0841,-0.0813,-0.0783,-0.0681,-0.067,-0.0627,-0.0559,-0.0529,-0.0476,-0.0455,-0.04,-0.0371,-0.033,-0.0258,-0.0234,-0.0223,-0.0175,-0.0193,-0.0195,-0.0196,-0.0197,-0.0287,-0.0178,-0.0177,-0.0177,-0.0177,0,-0.0981,-0.0967,-0.0855,-0.0839,-0.082,-0.0736,-0.072,-0.067,-0.061,-0.0582,-0.0507,-0.0483,-0.0389,-0.0354,-0.0298,-0.0271,-0.0258,-0.0228,-0.0214,-0.0236,-0.024,-0.022,-0.0216,-0.0179,-0.0179,-0.0178,-0.0178,0,-0.1087,-0.1012,-0.0976,-0.0882,-0.0858,-0.0849,-0.0768,-0.0749,-0.0692,-0.0658,-0.0645,-0.0557,-0.0511,-0.0435,-0.0368,-0.033,-0.0315,-0.0289,-0.0338,-0.0329,-0.0351,-0.0351,-0.0433,-0.044,-0.0326,-0.0327,-0.0328,0,-0.1133,-0.112,-0.1024,-0.1,-0.096,-0.0922,-0.0889,-0.0806,-0.0776,-0.0699,-0.069,-0.0638,-0.0593,-0.0525,-0.0455,-0.0403,-0.0377,-0.0409,-0.0368,-0.0391,-0.0379,-0.0381,-0.038,-0.0419,-0.0421,-0.0422,-0.0423,0,-0.1223,-0.1186,-0.1143,-0.1086,-0.105,-0.1001,-0.0949,-0.0934,-0.0839,-0.0809,-0.0761,-0.0726,-0.0657,-0.0607,-0.0545,-0.0501,-0.0447,-0.0436,-0.0437,-0.0461,-0.049,-0.0476,-0.0365,-0.0435,-0.0434,-0.0433,-0.0432,-0.0432,-0.1301,-0.1286,-0.1216,-0.117,-0.1122,-0.1074,-0.1052,-0.0992,-0.0951,-0.0888,-0.0841,-0.0797,-0.073,-0.0642,-0.0601,-0.0566,-0.0541,-0.0543,-0.0544,-0.0546,-0.0555,-0.0494,-0.0554,-0.0553,-0.0553,-0.0553,-0.0552,0,-0.1388,-0.1339,-0.1297,-0.1226,-0.119,-0.1141,-0.108,-0.1054,-0.1016,-0.0958,-0.0915,-0.086,-0.0812,-0.0737,-0.0683,-0.0669,-0.0643,-0.0658,-0.0659,-0.065,-0.058,-0.0584,-0.068,-0.068,-0.068,-0.068,-0.068,-0.068,-0.143,-0.1401,-0.1356,-0.1303,-0.1254,-0.121,-0.118,-0.1136,-0.1089,-0.1032,-0.0991,-0.0942,-0.0878,-0.0818,-0.0772,-0.0751,-0.0736,-0.0759,-0.0731,-0.0667,-0.0655,-0.0644,-0.0648,-0.0756,-0.0756,-0.0804,-0.0805,-0.0805]}]]